SCP
7 7 6 6 6 7 7 7 7 8 9 9 8 7 6 5 5 5 4 4 3 3 2 2 2 2 2 1 1 1 0 0 0 0 0 0 0 0 0 0 0 0 0
7 7 6 6 7 7 8 7 7 8 9 10 9 8 7 6 5 4 4 3 3 3 3 2 2 2 2 1 1 1 0 0 0 0 0 0 0 0 0 0 0 0 0
8 7 8 8 9 9 9 8 8 9 10 10 10 9 8 7 5 4 3 3 3 3 3 2 2 1 1 1 1 0 0 0 0 0 0 0 0 0 0 0 0 0 0
9 10 12 14 14 14 13 11 10 11 11 12 12 11 10 8 6 5 4 4 3 3 3 2 1 1 1 1 0 0 0 0 0 0 0 0 0 0 0 0 0 0 0
12 14 17 18 19 19 17 14 12 12 12 12 13 12 9 7 6 6 5 4 3 3 2 2 1 1 1 0 0 0 0 0 0 0 0 0 0 0 0 0 0 0 0
14 15 16 17 17 16 15 13 11 10 10 11 12 10 8 7 7 7 7 6 4 2 2 2 1 1 1 0 0 0 0 0 0 0 0 0 0 0 0 0 0 0 0
13 13 12 11 10 9 8 8 8 7 7 8 9 10 9 8 8 9 9 8 5 2 1 1 1 1 1 0 0 0 0 0 0 0 0 0 0 0 0 0 0 0 0
9 8 7 6 5 5 4 5 5 4 5 6 8 9 9 9 8 9 10 9 6 2 1 1 0 0 0 0 0 0 0 0 0 0 0 0 0 0 0 0 0 0 0
4 4 3 3 3 2 2 3 2 2 2 4 6 6 6 6 6 6 7 6 4 1 0 0 0 0 0 0 0 0 0 0 0 0 0 0 0 0 0 0 0 0 0
1 1 1 1 1 1 1 1 1 1 1 1 2 2 2 2 2 3 2 2 1 0 0 0 0 0 0 0 0 0 0 0 0 0 0 0 0 0 0 0 0 0 0
0 0 0 0 0 0 0 0 0 0 0 0 0 0 0 0 0 0 0 0 0 0 0 0 0 0 0 0 0 0 0 0 0 0 0 0 0 0 0 0 0 0 0
0 0 0 0 0 0 0 0 0 0 0 0 0 0 0 0 0 0 0 0 0 0 0 0 0 0 0 0 0 0 0 0 0 0 0 0 0 0 0 0 0 0 0
0 0 0 0 0 0 0 0 0 0 0 0 0 0 0 0 0 0 0 0 0 0 0 0 0 0 0 0 0 0 0 0 0 0 0 0 0 0 0 0 0 0 0
0 0 0 0 0 0 0 0 0 0 0 0 0 0 0 0 0 0 0 0 0 0 0 0 0 0 0 0 0 0 0 0 0 0 0 0 0 0 0 0 0 0 0
0 0 0 0 0 0 0 0 0 0 0 0 0 0 0 0 0 0 0 0 0 0 0 0 0 0 0 0 0 0 0 0 0 0 0 0 0 0 0 0 0 0 0
0 0 0 0 0 0 0 0 0 0 0 0 0 0 0 0 0 0 0 0 0 0 0 0 0 0 0 0 0 0 0 0 0 0 0 0 0 0 0 0 0 0 0
0 0 0 0 0 0 0 0 0 0 0 0 0 0 0 0 0 0 0 0 0 0 0 0 0 0 0 0 0 0 0 0 0 0 0 0 0 0 0 0 0 0 0
0 0 0 0 0 0 0 0 0 0 0 0 0 0 0 0 0 0 0 0 0 0 0 0 0 0 0 0 0 0 0 0 0 0 0 0 0 0 0 0 0 0 0
0 0 0 0 0 0 0 0 0 0 0 0 0 0 0 0 0 0 0 0 0 0 0 0 0 0 0 0 0 0 0 0 0 0 0 0 0 0 0 0 0 0 0
0 0 0 0 0 0 0 0 0 0 0 0 0 0 0 0 0 0 0 0 0 0 0 0 0 0 0 0 0 0 0 0 0 0 0 0 0 0 0 0 0 0 0
0 0 0 0 0 0 0 0 0 0 0 0 0 0 0 0 0 0 0 0 0 0 0 0 0 0 0 0 0 0 0 0 0 0 0 0 0 0 0 0 0 0 0
0 0 0 0 0 0 0 0 0 0 0 0 0 0 0 0 0 0 0 0 0 0 0 0 0 0 0 0 0 0 0 0 0 0 0 0 0 0 0 0 0 0 0
0 0 0 0 0 0 0 0 0 0 0 0 0 0 0 0 0 0 0 0 0 0 0 0 0 0 0 0 0 0 0 0 0 0 0 0 0 0 0 0 0 0 0
0 0 0 0 0 0 0 0 0 0 0 0 0 0 0 0 0 0 0 0 0 0 0 0 0 0 0 0 0 0 0 0 0 0 0 0 0 0 0 0 0 0 0
0 0 0 0 0 0 0 0 0 0 0 0 0 0 0 0 0 0 0 0 0 0 0 0 0 0 0 0 0 0 0 0 0 0 0 0 0 0 0 0 0 0 0
0 0 0 0 0 0 0 0 0 0 0 0 0 0 0 0 0 0 0 0 0 0 0 0 0 0 0 0 0 0 0 0 0 0 0 0 0 0 0 0 0 0 0
Wind_Speed
4 4 4 5 5 5 8 9 11 11 10 8 6 6 4 4 4 4 5 5 5 4 4 3 3 3 3 3 3 3 3 2 1 2 2 2 2 1 1 1 2 2 2
5 5 5 5 5 5 6 8 8 9 9 7 5 4 5 5 4 4 5 5 5 4 4 4 3 3 3 3 3 3 2 2 2 2 2 1 2 3 2 2 2 1 1
7 7 6 5 5 5 5 5 5 7 7 7 7 6 5 4 3 4 4 5 5 6 5 5 4 4 3 3 3 3 3 2 2 2 2 2 2 1 2 2 2 1 1
8 8 8 6 6 4 3 4 5 5 6 7 8 9 7 5 4 4 4 5 6 6 6 6 6 6 4 4 3 3 2 3 2 2 3 2 2 1 1 2 2 2 2
10 10 9 8 9 8 7 6 7 6 6 6 6 7 6 6 6 6 7 6 6 7 7 7 6 6 5 5 6 5 5 3 3 2 2 3 3 2 1 1 3 3 2
11 11 11 11 11 11 10 9 10 9 8 8 7 8 9 9 9 8 8 6 5 6 8 8 7 6 6 6 6 6 7 5 5 4 3 2 2 1 1 0 1 2 3
11 11 11 12 12 13 12 11 12 12 11 11 10 9 10 10 9 8 8 7 5 5 7 7 7 6 6 7 6 7 6 5 5 4 3 3 2 1 1 1 1 2 3
10 11 11 12 12 13 13 13 14 13 13 12 12 11 11 8 8 9 7 7 6 6 6 7 7 8 7 7 6 5 5 5 5 5 4 3 2 2 1 1 0 1 2
10 11 11 12 13 13 13 13 14 14 13 13 13 13 12 11 10 9 8 6 6 7 8 8 8 8 7 7 6 5 5 5 4 4 4 3 2 2 2 1 1 1 1
9 10 10 11 12 12 13 14 14 14 13 13 12 12 12 11 10 9 9 9 8 8 8 8 8 8 8 7 6 5 5 6 5 4 5 4 2 3 2 2 1 1 2
9 9 10 10 11 12 13 13 13 14 13 13 13 12 11 11 11 10 9 8 8 8 8 8 8 8 8 7 7 6 6 6 5 4 4 3 2 2 2 2 1 1 1
9 10 10 11 11 12 12 12 12 13 12 12 12 12 11 11 10 10 8 8 8 8 8 8 8 9 8 7 7 7 7 6 5 5 4 4 3 3 2 2 2 1 1
10 10 10 10 11 11 11 11 11 11 11 11 11 11 10 10 9 9 8 8 8 8 8 8 8 8 7 7 6 6 5 5 4 4 4 4 3 3 2 2 2 2 2
10 11 10 10 10 10 10 10 10 10 10 10 11 10 9 9 9 9 8 8 8 8 7 7 7 6 6 6 5 5 5 5 5 5 4 4 4 4 4 3 3 2 3
11 11 10 9 9 9 9 9 9 9 9 9 9 8 8 8 8 8 7 7 6 6 5 6 5 4 4 4 4 4 5 5 6 6 5 5 6 5 2 1 2 2 3
10 10 10 9 9 9 8 8 8 7 7 8 8 7 7 7 6 6 6 6 5 5 5 4 4 3 3 4 6 6 4 5 5 5 6 6 4 5 6 8 8 6 4
10 9 9 8 8 7 7 7 7 6 7 6 6 5 5 5 4 5 5 4 3 3 3 3 3 2 1 3 6 9 5 5 5 5 5 5 4 4 4 7 10 10 11
9 8 7 7 6 6 6 6 6 6 6 5 5 4 4 4 4 4 3 2 2 2 1 1 2 1 0 2 6 8 6 5 5 6 5 4 3 4 4 5 7 7 7
8 7 6 6 6 5 5 6 5 5 5 5 4 4 4 4 4 3 2 1 1 1 0 1 2 2 1 2 4 6 4 4 6 6 6 5 4 7 8 6 7 8 8
7 6 5 6 6 4 5 6 5 5 4 3 3 3 3 4 3 2 1 1 1 1 1 1 1 1 1 2 4 6 3 4 5 6 6 8 7 10 10 6 6 8 8
7 6 6 5 4 4 5 5 4 3 3 3 3 3 2 3 2 2 1 2 2 3 3 3 2 1 1 2 5 7 3 3 5 5 5 6 11 13 13 9 5 8 9
6 6 5 4 3 4 5 5 3 2 2 3 3 2 2 1 3 3 3 3 4 4 4 4 4 3 3 4 6 9 8 7 4 5 5 7 13 14 13 8 8 10 7
5 4 5 4 3 3 4 4 1 2 3 2 1 0 1 2 2 3 3 3 3 3 3 3 3 3 3 4 8 9 11 11 5 5 11 13 13 12 8 9 10 7 3
4 4 5 4 3 2 3 2 2 2 3 2 0 0 1 1 2 2 3 3 2 3 2 3 2 3 3 4 5 6 6 9 7 6 9 12 10 8 7 7 6 4 3
3 4 4 4 3 2 1 1 2 2 2 0 0 0 1 2 3 3 2 2 1 2 2 0 1 2 4 6 9 6 5 5 5 6 4 4 5 6 6 6 5 4 4
4 4 4 4 3 3 2 1 2 2 2 1 1 0 1 2 3 3 2 3 1 2 2 2 1 2 4 9 10 10 10 10 9 4 3 4 5 5 6 6 5 4 4
Wind_Direction
163 158 157 146 146 148 155 181 179 173 166 161 156 150 144 129 115 110 110 114 113 113 115 118 117 121 127 129 126 112 98 76 70 83 38 7 19 58 78 104 108 117 137
84 85 97 104 121 141 163 180 174 167 168 162 148 134 125 109 103 101 87 86 95 96 102 106 107 95 95 92 94 107 111 80 51 113 103 12 353 7 22 50 78 75 62
88 83 80 96 111 125 154 162 162 157 153 141 126 115 103 100 93 88 82 71 84 88 88 90 92 82 86 94 85 93 119 121 58 54 130 149 216 307 343 20 44 35 31
76 78 74 63 61 66 82 106 130 137 138 139 147 147 145 138 123 110 98 79 71 74 78 83 87 87 81 79 70 63 75 103 96 51 42 76 130 148 315 335 358 10 17
59 61 58 56 49 51 63 70 81 92 105 119 134 132 120 113 109 105 97 84 72 70 74 74 78 83 83 77 70 65 63 65 82 80 65 58 49 56 122 312 335 344 339
55 53 51 51 51 51 56 64 70 71 81 90 98 110 116 119 119 113 104 90 77 72 72 76 77 77 76 75 72 69 68 66 72 70 67 78 77 53 74 221 308 314 314
53 51 52 51 52 51 54 61 67 65 69 77 81 92 102 105 106 105 101 97 86 76 74 79 76 74 72 71 70 69 65 62 66 63 60 64 65 72 98 115 297 310 310
55 53 52 54 55 55 56 64 67 66 66 73 75 77 84 88 87 86 91 94 91 84 79 77 74 70 68 68 65 64 60 59 59 54 50 53 43 48 64 107 104 342 324
65 61 58 57 59 60 59 64 70 70 69 74 77 75 77 82 86 87 86 86 89 92 82 78 75 69 64 61 60 58 53 51 51 51 45 42 27 30 41 67 115 142 274
72 69 66 67 66 68 68 68 70 73 73 74 77 80 77 80 83 83 81 78 75 78 78 75 72 68 63 59 59 57 49 50 38 45 47 35 19 17 20 30 52 132 174
81 78 74 71 72 72 70 71 71 72 72 73 76 78 77 77 76 76 75 77 73 71 74 73 74 67 60 53 53 50 45 43 32 28 33 20 14 14 1 7 12 26 152
92 87 83 80 76 74 73 73 73 74 74 76 77 77 76 76 77 76 73 75 75 71 73 72 71 67 61 53 50 44 37 31 20 11 11 354 351 347 334 336 328 304 258
92 85 80 79 79 78 77 75 75 76 75 77 78 76 74 74 75 72 69 69 71 69 69 72 73 69 64 54 45 39 31 19 5 354 347 328 329 312 301 299 298 293 300
96 92 86 80 79 79 80 79 76 76 77 77 77 75 73 73 73 72 70 69 72 74 73 76 80 76 67 55 37 25 16 359 345 336 326 313 299 277 276 279 282 284 297
103 97 94 90 86 83 80 80 79 77 79 80 79 76 75 74 73 70 68 67 70 79 83 88 83 76 69 50 36 13 3 347 336 329 322 313 320 331 321 306 289 286 283
107 105 102 96 91 89 89 87 84 81 82 84 83 81 79 77 74 72 68 67 67 70 79 89 92 77 64 42 26 14 351 337 332 326 324 319 338 1 3 348 332 313 291
117 112 107 102 98 94 93 89 86 83 81 83 83 82 83 81 77 77 72 70 69 75 85 100 109 102 67 30 12 7 3 341 333 328 324 329 349 7 348 334 330 321 310
110 105 100 97 92 91 89 87 82 80 80 79 78 80 84 82 77 73 69 62 61 74 95 137 155 155 263 8 11 5 5 349 340 334 329 327 329 331 328 319 316 307 301
105 103 103 102 97 95 96 91 84 83 84 85 86 87 87 86 83 77 61 39 53 28 318 205 175 180 259 311 360 9 351 342 334 330 332 326 312 309 320 316 309 308 304
101 103 99 95 93 93 93 90 91 92 97 103 102 96 98 104 105 103 69 26 41 1 349 350 220 197 235 297 347 4 352 337 329 325 323 321 314 309 312 301 293 297 298
103 102 99 97 104 103 92 92 100 110 121 110 95 88 93 117 118 88 56 45 40 30 18 15 9 30 38 6 357 357 348 323 318 317 316 312 315 315 311 305 275 271 284
103 102 98 95 96 103 103 103 116 146 121 107 96 83 79 100 103 81 58 50 50 43 28 27 19 18 26 21 357 353 347 340 312 305 306 306 313 315 316 313 303 307 310
108 102 105 98 90 105 117 119 154 139 115 108 111 120 76 65 81 96 89 61 52 56 40 33 21 360 358 352 351 346 339 340 332 306 313 316 318 322 323 324 326 328 325
118 117 114 110 111 121 120 139 151 131 121 121 154 171 103 75 72 89 100 93 76 62 43 29 9 343 332 333 337 333 329 332 332 325 320 320 324 335 331 330 334 330 311
125 125 129 133 147 144 136 160 154 126 113 108 317 338 138 131 107 89 90 116 135 155 142 121 322 334 326 313 318 319 316 317 313 318 319 338 344 350 347 340 335 330 336
130 133 143 152 168 159 161 188 173 141 128 74 34 79 121 130 130 120 75 45 113 127 143 173 239 285 292 312 325 331 331 333 335 341 339 340 340 336 333 332 330 327 333